Estación municipal de Roda de Ter (Osona, Plana de Vic)

Consulta los datos en tiempo real de la estación municipal de Roda de Ter





Hora UTC 05:20
Temperatura 20.0 ºC
Humedad 87.4 %
Pluja 0.0 mm
Velocidad viento 0.0 km/h
Dirección viento NNE

Webcam

Datos diarios 2026-09-01



Hora UTC (invierno +1h; verano +2h)
Temperatura (ºC) Humedad (%) Velocidad viento (km/h) Precipitación (mm)
Hora UTC Aire Humedad Vel. Dir. Vel. Max Dir. Intent. máx 5 min.
00:05 20.2 87.0 0.2 WNW 0.2 WNW 0.0
00:10 20.2 87.6 0.6 W 1.8 W 0.0
00:15 20.4 86.6 0.2 W 1.8 W 0.0
00:20 20.1 87.4 2.0 W 3.2 W 0.0
00:25 20.3 87.4 1.8 W 2.5 W 0.0
00:30 20.1 86.9 0.1 W 1.4 W 0.0
00:35 19.9 87.2 0.0 NNE 0.0 W 0.0
00:40 19.6 87.4 0.0 NNE 0.0 WNW 0.0
00:45 19.2 88.0 0.0 NNE 0.0 WNW 0.0
00:50 19.2 88.8 0.2 WNW 1.4 WNW 0.0
00:55 19.7 87.4 0.6 WNW 1.4 WNW 0.0
01:00 20.0 86.3 3.0 N 6.7 NE 0.0
01:05 20.1 85.6 4.1 NE 5.6 NE 0.0
01:10 20.2 85.1 4.4 NE 6.0 NE 0.0
01:15 20.3 84.7 5.0 NE 7.4 NE 0.0
01:20 20.4 84.7 2.8 NE 6.4 ENE 0.0
01:25 20.5 84.6 3.7 ENE 6.7 NE 0.0
01:30 20.6 84.7 1.4 ENE 2.8 ENE 0.0
01:35 20.6 85.2 0.3 ENE 1.8 NE 0.0
01:40 20.6 84.6 1.1 NE 2.8 NE 0.0
01:45 20.7 84.6 0.5 NE 2.5 NE 0.0
01:50 20.7 84.6 0.7 NE 3.2 NE 0.0
01:55 20.7 84.5 2.4 NE 3.9 NE 0.0
02:00 20.6 84.6 3.0 NNE 5.6 NNE 0.0
02:05 20.7 84.5 2.9 NNE 4.6 NNE 0.0
02:10 20.8 84.7 0.8 NNE 2.8 NNE 0.0
02:15 20.6 85.7 0.5 NNE 1.8 NNE 0.0
02:20 20.4 86.6 0.0 NNE 0.0 NNE 0.0
02:25 20.5 86.0 0.0 NNE 0.0 NNE 0.0
02:30 20.5 85.4 0.0 NNE 0.0 NNE 0.0
02:35 20.6 85.9 0.0 NNE 1.1 NNE 0.0
02:40 20.6 86.1 0.0 NNE 0.0 NNE 0.0
02:45 20.6 85.0 0.3 NNE 1.8 NNE 0.0
02:50 20.6 85.2 0.1 NNE 1.4 NNE 0.0
02:55 20.7 85.3 0.3 NNE 1.8 NNE 0.0
03:00 20.8 84.9 0.7 NNE 2.5 NNE 0.0
03:05 20.8 85.2 0.0 NNE 0.0 NNE 0.0
03:10 20.8 85.2 0.7 NNE 2.8 NNE 0.0
03:15 20.8 85.1 0.5 NNE 3.2 NNE 0.0
03:20 20.8 85.2 0.0 NNE 0.0 NNE 0.0
03:25 20.9 85.0 0.0 NNE 0.0 NNE 0.0
03:30 20.8 85.2 0.0 NNE 0.0 NNE 0.0
03:35 20.8 85.4 0.0 NNE 0.0 NNE 0.0
03:40 20.7 85.1 0.0 NNE 0.0 NNE 0.0
03:45 20.6 85.3 0.0 NNE 1.4 NNE 0.0
03:50 20.6 85.4 0.6 NNE 2.1 NNE 0.0
03:55 20.6 85.4 0.3 NNE 1.8 NNE 0.0
04:00 20.4 85.8 0.2 NNE 2.1 NNE 0.0
04:05 20.1 86.4 0.0 NNE 0.0 NNE 0.0
04:10 19.9 87.1 0.0 NNE 1.1 NNE 0.0
04:15 20.0 87.1 0.1 NNE 1.4 NNE 0.0
04:20 20.0 87.1 0.5 NNE 1.8 NNE 0.0
04:25 20.0 87.0 0.1 NNE 1.4 NNE 0.0
04:30 19.7 87.3 0.2 NE 1.4 NNE 0.0
04:35 19.8 88.1 5.2 SE 6.4 SE 0.0
04:40 19.9 88.0 5.4 SE 6.4 SE 0.0
04:45 20.0 88.1 3.4 SE 4.9 SE 0.0
04:50 20.0 87.8 0.4 SE 2.5 SE 0.0
04:55 19.8 88.0 0.5 SE 1.8 SE 0.0
05:00 19.7 88.6 0.8 SE 2.5 SE 0.0
05:05 19.9 88.0 0.5 ESE 2.5 ESE 0.0
05:10 19.9 87.4 0.0 NNE 0.0 ESE 0.0
05:15 19.9 87.7 0.0 ESE 1.4 ESE 0.0
05:20 20.0 87.4 0.0 NNE 0.0 ESE 0.0
Máxima 20.9 88.8 5.4 SE 7.4 NE 0.0
Mínima 19.2 84.5
Total 0.0